Regional Weather Roundup
Issued by NWS

Home | Current Version | Previous Version | Text Only | Print | Product List | Glossary On
Versions: 1 2 3 4 5 6 7 8 9 10 11 12 13 14 15 16 17 18 19 20 21 22 23 24 25 26 27 28 29 30 31 32 33 34 35 36 37 38 39 40 41 42 43 44 45 46 47 48 49 50
000
ASUS44 KJAN 280810
RWRMS

MISSISSIPPI HOURLY WEATHER ROUNDUP
NATIONAL WEATHER SERVICE JACKSON MS
300 AM CDT MON JUL 28 2014

NOTE: "FAIR: INDICATES FEW OR NO CLOUDS BELOW 12,000 FEET WITH NO
SIGNIFICANT WEATHER AND/OR OBSTRUCTIONS TO VISIBILITY.

MSZ001>002-007>008-010>013-018>021-025>028-034>036-280900-
NORTHWEST MISSISSIPPI

CITY           SKY/WX    TMP DP  RH WIND       PRES   REMARKS
CLARKSDALE     FAIR      79  79 100 NW5       29.98R
CLEVELAND      PTSUNNY   80  78  93 W5        29.96F
GREENWOOD      MOCLDY    78  76  93 S3        29.96F
GREENVILLE     MOCLDY    81  75  82 W7        29.97S
GRENADA        FAIR      79  73  83 NW3       29.96S
OLIVE BRANCH   CLEAR     79  73  83 N9        29.97S
OXFORD         FAIR      77  75  94 CALM      29.98S
TUNICA         MOSUNNY   79  72  78 N8        29.98R
$$

MSZ003>006-009-014>017-022>024-029>033-037>039-280900-
NORTHEAST MISSISSIPPI

CITY           SKY/WX    TMP DP  RH WIND       PRES   REMARKS
BELMONT        FAIR      77  76  96 W3        29.94F
COLUMBUS AFB   PTCLDY    80  74  83 SW9       29.94F
CORINTH        FAIR      79  73  83 NW5       29.94S
GOLDN TRIANGLE MOCLDY    79  72  78 SW5       29.95F
STARKVILLE     PTSUNNY   79  73  83 W6        29.95F
TUPELO         PTCLDY    80  76  87 W5        29.94S
$$

MSZ040-058-280900-
CENTRAL MISSISSIPPI

CITY           SKY/WX    TMP DP  RH WIND       PRES   REMARKS
JACKSON INTL   CLEAR     78  74  87 SW3       30.00S
JACKSON HAWKNS CLEAR     80  73  79 W6        30.00S
MERIDIAN KEY   CLEAR     76  73  91 S3        29.99S
MERIDIAN NAS   CLEAR     78  73  84 SW7       29.97F
RAYMOND        FAIR      77  72  83 SW5       30.00S
VICKSBURG      CLEAR     78  75  90 SW3       30.00S
$$

MSZ059>079-280900-
SOUTH MISSISSIPPI

CITY           SKY/WX    TMP DP  RH WIND       PRES   REMARKS
BROOKHAVEN     FAIR      79  75  89 SW7       30.04S
COLUMBIA       FAIR      77  77 100 VRB3      30.00S
HATTIESBURG    CLEAR     80  75  84 W7        30.00F
MCCOMB         CLEAR     78  75  90 W7        30.03S
NATCHEZ        PTCLDY    79  73  83 SW8       30.04S
PINE BELT      CLEAR     79  73  83 W3        30.01F
$$

MSZ080>082-280900-
COASTAL MISSISSIPPI

CITY           SKY/WX    TMP DP  RH WIND       PRES   REMARKS
BILOXI         CLEAR     82  78  87 W6        30.00F HX  90
PASCAGOULA     CLEAR     80  77  90 W3        30.00F
GULFPORT       CLEAR     84  77  79 W6        30.00F HX  94
$$


USA.gov is the U.S. government's official web portal to all federal, state and local government web resources and services.